FW6376 Weather Reports


Display with metric or nautical units.
time (UTC)temp
F
wind
direction
speed
MPH
gust
MPH
rain 1hr
in
rain 24hr
in
rain mn
in
humidity
%
barometer
mb
20260902231552 65 37 0.0 5.0 0.00 0.01 0.00 69 1019.3
20260902230048 65 61 0.0 6.0 0.00 0.01 0.00 69 1019.8
20260902224546 65 165 0.0 2.0 0.00 0.01 0.00 72 1020.4
20260902223045 66 165 0.0 3.0 0.00 0.01 0.00 71 1020.5
20260902221545 66 22 2.0 9.0 0.00 0.01 0.00 69 1020.7
20260902220047 66 35 0.0 4.0 0.00 0.01 0.00 69 1020.8
20260902214544 67 33 1.0 4.0 0.00 0.01 0.00 67 1020.8
20260902213043 67 314 1.0 4.0 0.00 0.01 0.00 68 1020.6
20260902211551 67 21 0.0 5.0 0.00 0.01 0.00 70 1020.6
20260902210109 67 13 0.0 2.0 0.00 0.01 0.00 70 1020.8
20260902204544 68 11 0.0 3.0 0.00 0.01 0.00 69 1021.0
20260902203041 68 84 2.0 5.0 0.00 0.01 0.00 65 1021.0
20260902201540 68 82 1.0 4.0 0.00 0.01 0.00 64 1021.0
20260902200040 69 49 4.0 10.0 0.00 0.01 0.00 63 1020.9
20260902194539 69 82 2.0 7.0 0.00 0.01 0.00 63 1021.1
20260902193040 70 85 2.0 8.0 0.00 0.01 0.00 62 1021.1
20260902191543 70 30 2.0 8.0 0.00 0.01 0.00 63 1021.3
20260902190039 68 38 3.0 9.0 0.00 0.01 0.00 63 1021.3
20260902184533 68 315 1.0 6.0 0.00 0.01 0.00 66 1021.6
20260902183031 68 58 1.0 5.0 0.00 0.01 0.00 67 1022.0
20260902181531 68 15 2.0 8.0 0.00 0.01 0.00 65 1022.0
20260902180031 68 71 1.0 5.0 0.00 0.01 0.00 65 1022.0
20260902174530 68 52 3.0 10.0 0.00 0.01 0.00 64 1021.6
20260902173030 67 44 1.0 8.0 0.00 0.01 0.00 67 1021.6
20260902171530 67 172 1.0 4.0 0.00 0.01 0.00 64 1021.8
20260902170032 67 42 2.0 6.0 0.00 0.01 0.00 65 1022.0
20260902164530 67 40 1.0 9.0 0.00 0.01 0.00 64 1022.3
20260902163028 68 51 5.0 12.0 0.00 0.01 0.00 64 1022.2
20260902161524 67 59 2.0 6.0 0.00 0.01 0.00 65 1022.0
20260902160023 67 53 0.0 9.0 0.00 0.01 0.00 65 1022.2
20260902154524 67 46 2.0 9.0 0.00 0.01 0.00 63 1022.5
20260902153031 67 61 3.0 5.0 0.00 0.01 0.00 65 1022.7
20260902151520 67 248 2.0 5.0 0.00 0.01 0.00 64 1023.1
20260902150018 67 264 2.0 6.0 0.00 0.01 0.00 64 1023.0
20260902144527 66 252 2.0 8.0 0.00 0.01 0.00 66 1022.9
20260902143014 66 360 1.0 6.0 0.00 0.01 0.00 70 1022.9
20260902141510 65 271 1.0 4.0 0.00 0.01 0.00 72 1022.8
20260902140006 65 161 0.0 3.0 0.00 0.02 0.00 74 1022.7
20260902134506 64 38 0.0 4.0 0.00 0.02 0.00 74 1022.5
20260902133000 63 355 1.0 4.0 0.00 0.02 0.00 76 1022.3
20260902131559 63 355 0.0 3.0 0.00 0.02 0.00 78 1022.1
20260902130104 62 5 1.0 4.0 0.00 0.02 0.00 78 1022.3
20260902124554 62 23 0.0 0.0 0.00 0.05 0.00 81 1022.5
20260902123054 61 23 0.0 0.0 0.00 0.05 0.00 82 1022.4
20260902121552 61 5 0.0 4.0 0.00 0.05 0.00 82 1022.5
20260902120051 61 171 0.0 0.0 0.00 0.05 0.00 82 1022.7
20260902114551 60 262 0.0 0.0 0.00 0.13 0.00 82 1022.6
20260902113052 60 262 0.0 0.0 0.00 0.13 0.00 82 1022.7
20260902111548 60 262 0.0 0.0 0.00 0.13 0.00 82 1022.7
20260902110044 60 262 0.0 0.0 0.00 0.13 0.00 82 1022.7
20260902104544 60 262 0.0 0.0 0.00 0.19 0.00 82 1022.3
20260902103041 60 261 0.0 0.0 0.00 0.19 0.00 82 1022.4
20260902101539 60 261 0.0 0.0 0.00 0.19 0.00 82 1022.1
20260902100038 60 262 0.0 0.0 0.00 0.19 0.00 82 1022.0
20260902094536 60 262 0.0 0.0 0.00 0.19 0.00 82 1022.0
20260902093037 60 261 0.0 0.0 0.00 0.19 0.00 82 1022.1
20260902091541 60 261 0.0 0.0 0.00 0.19 0.00 82 1021.8
20260902090033 61 261 0.0 0.0 0.00 0.19 0.00 82 1021.7
20260902084533 61 261 0.0 0.0 0.00 0.19 0.00 82 1021.8
20260902083030 61 262 0.0 0.0 0.00 0.19 0.00 82 1021.7
20260902081531 61 262 0.0 0.0 0.00 0.19 0.00 82 1021.8
20260902080030 61 262 0.0 0.0 0.00 0.19 0.00 82 1021.6
20260902074528 61 262 0.0 0.0 0.00 0.19 0.00 82 1021.9
20260902073026 61 262 0.0 0.0 0.00 0.19 0.00 82 1021.8
20260902071528 61 261 0.0 0.0 0.00 0.19 0.00 82 1021.6
20260902070024 62 261 0.0 0.0 0.00 0.19 0.00 82 1021.8
20260902064523 62 262 0.0 0.0 0.00 0.19 0.00 82 1021.7
20260902063021 62 262 0.0 0.0 0.00 0.19 0.00 82 1021.6
20260902061539 62 261 0.0 0.0 0.00 0.19 0.00 82 1021.3
20260902060020 62 262 0.0 0.0 0.00 0.19 0.00 82 1021.5
20260902054520 62 261 0.0 0.0 0.00 0.19 0.00 82 1021.2
20260902053017 62 262 0.0 0.0 0.00 0.19 0.00 82 1021.2
20260902051515 62 261 0.0 0.0 0.00 0.19 0.00 82 1021.1
20260902050015 62 262 0.0 0.0 0.00 0.19 0.00 82 1021.0
20260902044513 62 262 0.0 0.0 0.00 0.19 0.00 82 1021.0
20260902043011 62 262 0.0 0.0 0.00 0.19 0.00 82 1020.7
20260902041509 62 262 0.0 0.0 0.01 0.19 0.00 82 1020.5
20260902040008 62 261 0.0 0.0 0.01 0.19 0.19 82 1020.5
20260902034509 62 261 0.0 0.0 0.01 0.19 0.19 81 1020.4
20260902033010 63 262 0.0 0.0 0.01 0.19 0.19 81 1020.3
20260902031506 63 262 0.0 0.0 0.00 0.18 0.18 81 1020.5
20260902030005 63 261 0.0 0.0 0.00 0.18 0.18 81 1020.5
20260902024505 63 262 0.0 0.0 0.00 0.18 0.18 81 1020.3
20260902023005 63 262 0.0 0.0 0.00 0.18 0.18 81 1020.0
20260902021508 63 262 0.0 0.0 0.00 0.18 0.18 81 1020.1
20260902020003 63 261 0.0 0.0 0.00 0.18 0.18 81 1020.1
20260902014502 63 262 0.0 0.0 0.00 0.18 0.18 80 1020.3
20260902013001 63 262 0.0 0.0 0.00 0.18 0.18 80 1020.0
20260902011601 63 262 0.0 0.0 0.00 0.18 0.18 79 1020.2
20260902010107 63 261 0.0 1.0 0.00 0.18 0.18 79 1020.1
20260902004600 64 262 0.0 0.0 0.00 0.18 0.18 78 1020.1
20260902003059 64 261 0.0 0.0 0.00 0.18 0.18 78 1020.3
20260902001559 64 261 0.0 0.0 0.00 0.18 0.18 77 1019.9
20260902000058 64 261 0.0 2.0 0.00 0.18 0.18 76 1019.6
20260901234559 64 261 0.0 0.0 0.00 0.18 0.18 75 1019.3
20260901233058 65 261 0.0 1.0 0.00 0.18 0.18 75 1019.2